Regional Weather Roundup
Issued by NWS

Home | Current Version | Previous Version | Graphics & Text | Print | Product List | Glossary On
Versions: 1 2 3 4 5 6 7 8 9 10 11 12 13 14 15 16 17 18 19 20 21 22 23 24 25 26 27 28 29 30 31 32 33 34 35 36 37 38 39 40 41 42 43 44 45 46 47 48 49 50
667
ASUS45 KCYS 281710
RWRWY

WYOMING REGIONAL WEATHER ROUNDUP
NATIONAL WEATHER SERVICE CHEYENNE WY
1100 AM MDT FRI APR 28 2017

NOTE:  "FAIR" INDICATES FEW OR NO CLOUDS BELOW 12,000 FEET
WITH NO SIGNIFICANT WEATHER AND/OR OBSTRUCTIONS TO VISIBILITY.

WYZ001-281800-
YELLOWSTONE NATIONAL PARK

CITY           SKY/WX    TMP DP  RH WIND       PRES   REMARKS
LK YELLOWSTONE   N/A     32  21  64 VRB6      29.87R WCI  26
W YELLOWSTONE  NOT AVBL

$$
WYZ002>013-054>058-071-098>099-281800-
NORTHERN WYOMING

CITY           SKY/WX    TMP DP  RH WIND       PRES   REMARKS
JACKSON        PTSUNNY   36  25  64 N23       29.81F WCI  24
CODY           MIX PCPN  35  33  92 N22       29.90R WCI  23
GREYBULL       CLOUDY    46  24  42 N12       29.85R
WORLAND        CLOUDY    44  32  62 NW15      29.83R
SHERIDAN       CLOUDY    37  33  85 NW5       29.96R WCI  33
BUFFALO        LGT SNOW  34  30  85 N13G24    29.93R VSB 3/4 WCI  25
GILLETTE       LGT SNOW  33  32  96 N15       29.91R WCI  23
HULETT         CLOUDY    36  30  80 E10G17    29.93R WCI  28
NEWCASTLE      CLOUDY    37  28  70 E10       29.89R WCI  30

$$
WYZ014>020-022>026-101>103-281800-
CENTRAL WYOMING

CITY           SKY/WX    TMP DP  RH WIND       PRES   REMARKS
BIG PINEY      CLOUDY    37  20  50 N18G26    29.75R WCI  27
PINEDALE       CLOUDY    36  21  55 N13       29.75R WCI  27
DUBOIS         LGT SNOW  32  25  74 SE6       29.77R WCI  26
LANDER         LGT SNOW  32  31  96 N9        29.80R VSB 1   WCI  24
RIVERTON       SNOW      31  31 100 NE14      29.80R VSB 1/4 WCI  21
CASPER         LGT SNOW  32  30  92 NE18      29.78R VSB 3/4 WCI  20
DOUGLAS        SNOW      31  29  92 E21       29.81R VSB 1/4 WCI  18

$$
WYZ021-027>030-104>119-281800-
SOUTHERN WYOMING

CITY           SKY/WX    TMP DP  RH WIND       PRES   REMARKS
EVANSTON       LGT SNOW  27  24  89 W13       29.81S VSB 1   WCI  16
KEMMERER         N/A     32  25  74 W20       29.77  WCI  20
ROCK SPRINGS   LGT SNOW  30  25  81 SW18      29.76R VSB 3/4 WCI  18
DIXON          SNOW      30  28  92 W6        29.79R VSB 1/4 WCI  24
RAWLINS        SNOW      30  26  85 N14       29.73R VSB 1/2 WCI  19
SARATOGA       CLOUDY    32  23  69 CALM      29.73S
LARAMIE        CLOUDY    35  22  58 W9        29.68R WCI  28
CHEYENNE       FAIR      40  28  62 N14G26    29.68R WCI  32
TORRINGTON     SNOW      33  32  96 E18G26    29.78R VSB 1/2 WCI  22
PINE BLUFFS    CLOUDY    41  34  75 N14G22    29.71R

$$




USA.gov is the U.S. government's official web portal to all federal, state and local government web resources and services.